Date String (YYYY-MM-DD hh:mm:ss) UTC,Instrument flags,Ambient pressure (hPa),Sample flow (lpm),Bypass flow (lpm),Sample temperature (°C),Ambient temperature (°C),ASC tube jacket temperature (°C),LED temperature (°C),Box temperature (°C),Sample RH (%),Span deviation,Mass concentration (μg/m³),Mass concentration (μg/m³),Mass concentration (μg/m³)
DateTimeUTC,F1_M11,P_M11,Q1_M11,Q2_M11,T1_M11,T2_M11,T3_M11,T4_M11,T5_M11,U1_M11,ZSPAN_M11,X0_M11,X2_M11,X1_M11
2023-01-06 00:00:00,,0823.0,5.00,0.00,22.9,21.5,00.0,31.8,24.8,09.9,0001.3,0018.07,0009.76,0009.12
2023-01-06 00:01:00,,0823.0,5.00,0.00,22.9,21.4,00.0,31.8,24.7,09.9,0000.8,0018.13,0009.95,0009.25
2023-01-06 00:02:00,,0823.1,5.00,0.00,22.9,21.2,00.0,31.8,24.6,09.9,0001.2,0018.08,0010.09,0009.36
2023-01-06 00:03:00,,0823.2,5.00,0.00,22.8,21.1,00.0,31.7,24.5,09.8,0001.7,0018.73,0010.20,0009.45
2023-01-06 00:04:00,,0823.1,5.01,0.00,22.8,21.1,00.0,31.7,24.5,09.8,0002.0,0018.33,0010.25,0009.52
2023-01-06 00:05:00,,0823.1,5.00,0.00,22.8,21.1,00.0,31.7,24.5,09.9,0002.2,0018.85,0010.37,0009.60
2023-01-06 00:06:00,,0823.1,5.00,0.00,22.8,21.2,00.0,31.7,24.5,09.9,0002.3,0018.38,0010.49,0009.68
2023-01-06 00:07:00,,0823.2,4.99,0.00,22.8,21.3,00.0,31.7,24.6,09.9,0002.0,0018.16,0010.58,0009.74
2023-01-06 00:08:00,,0823.2,5.00,0.00,22.8,21.3,00.0,31.7,24.6,09.8,0002.2,0017.63,0010.66,0009.78
2023-01-06 00:09:00,,0823.1,5.00,0.00,22.8,21.3,00.0,31.7,24.6,09.8,0002.5,0017.77,0010.69,0009.77
2023-01-06 00:10:00,,0823.1,5.00,0.00,22.7,21.2,00.0,31.7,24.5,09.9,0002.3,0017.09,0010.66,0009.76
2023-01-06 00:11:00,,0822.9,5.00,0.00,22.7,21.0,00.0,31.6,24.4,10.0,0002.5,0017.39,0010.59,0009.75
2023-01-06 00:12:00,,0823.0,5.00,0.00,22.6,20.8,00.0,31.6,24.3,10.0,0002.8,0017.14,0010.51,0009.74
2023-01-06 00:13:00,,0823.0,5.00,0.00,22.6,20.7,00.0,31.6,24.2,10.0,0002.5,0016.70,0010.48,0009.74
2023-01-06 00:14:00,,0822.9,5.00,0.00,22.5,20.5,00.0,31.6,24.1,09.7,0002.3,0016.53,0010.52,0009.77
2023-01-06 00:15:00,,0822.9,5.00,0.00,22.5,20.3,00.0,31.5,24.0,09.5,0002.3,0016.70,0010.56,0009.77
2023-01-06 00:16:00,,0822.8,5.01,0.00,22.4,20.1,00.0,31.5,23.9,09.4,0002.2,0016.11,0010.52,0009.75
2023-01-06 00:17:00,,0822.7,5.00,0.00,22.3,19.9,00.0,31.5,23.8,09.6,0002.1,0016.04,0010.46,0009.70
2023-01-06 00:18:00,,0822.6,5.00,0.00,22.2,19.9,00.0,31.4,23.7,09.8,0002.5,0016.01,0010.38,0009.65
2023-01-06 00:19:00,,0822.7,5.01,0.00,22.2,19.8,00.0,31.4,23.7,09.8,0003.4,0015.85,0010.30,0009.59
2023-01-06 00:20:00,,0822.8,5.01,0.00,22.1,19.8,00.0,31.3,23.6,09.7,0003.3,0015.55,0010.25,0009.57
2023-01-06 00:21:00,,0822.8,5.00,0.00,22.1,19.7,00.0,31.3,23.5,09.7,0003.3,0016.19,0010.23,0009.56
2023-01-06 00:22:00,,0823.0,4.99,0.00,22.0,19.8,00.0,31.2,23.6,09.6,0003.3,0016.03,0010.24,0009.57
2023-01-06 00:23:00,,0823.0,5.02,0.00,22.0,19.9,00.0,31.2,23.6,09.6,0003.5,0015.76,0010.26,0009.59
2023-01-06 00:24:00,,0823.1,5.00,0.00,22.0,20.1,00.0,31.2,23.6,09.6,0003.7,0015.87,0010.30,0009.62
2023-01-06 00:25:00,,0823.1,5.00,0.00,22.0,20.3,00.0,31.1,23.7,09.6,0003.5,0015.40,0010.30,0009.67
2023-01-06 00:26:00,,0823.1,4.99,0.00,22.0,20.4,00.0,31.1,23.8,09.6,0003.3,0015.57,0010.32,0009.72
2023-01-06 00:27:00,,0823.1,5.00,0.00,22.1,20.5,00.0,31.1,23.8,09.7,0003.4,0016.00,0010.35,0009.77
2023-01-06 00:28:00,,0823.0,5.01,0.00,22.1,20.6,00.0,31.1,23.9,09.7,0003.2,0016.07,0010.40,0009.81
2023-01-06 00:29:00,,0822.9,5.00,0.00,22.1,20.7,00.0,31.1,23.9,09.8,0002.9,0016.00,0010.45,0009.86
2023-01-06 00:30:00,,0822.9,5.00,0.00,22.1,20.7,00.0,31.0,23.9,09.9,0001.8,0016.03,0010.50,0009.93
2023-01-06 00:31:00,,0823.0,5.00,0.00,22.1,20.7,00.0,31.0,23.9,10.1,0001.2,0016.07,0010.57,0009.98
2023-01-06 00:32:00,,0823.0,5.00,0.00,22.1,20.6,00.0,31.0,23.9,10.2,0001.0,0015.53,0010.65,0010.04
2023-01-06 00:33:00,,0823.0,4.99,0.00,22.1,20.5,00.0,31.0,23.8,10.2,0000.5,0015.37,0010.67,0010.05
2023-01-06 00:34:00,,0823.1,5.00,0.00,22.1,20.4,00.0,31.0,23.8,10.3,0000.1,0015.57,0010.72,0010.06
2023-01-06 00:35:00,,0823.1,4.99,0.00,22.0,20.3,00.0,31.0,23.8,10.3,-000.2,0015.58,0010.72,0010.05
2023-01-06 00:36:00,,0823.0,5.02,0.00,22.0,20.4,00.0,31.0,23.8,10.3,-000.0,0016.67,0010.73,0010.02
2023-01-06 00:37:00,,0822.9,4.98,0.00,22.0,20.5,00.0,31.0,23.8,10.4,-000.5,0016.70,0010.74,0010.00
2023-01-06 00:38:00,,0822.9,5.00,0.00,22.0,20.6,00.0,31.0,23.8,10.4,-000.7,0016.60,0010.74,0010.01
2023-01-06 00:39:00,,0822.9,5.00,0.00,22.0,20.6,00.0,31.0,23.8,10.4,-000.5,0017.12,0010.73,0009.99
2023-01-06 00:40:00,,0823.0,5.00,0.00,22.0,20.4,00.0,30.9,23.7,10.5,-000.1,0017.99,0010.74,0010.02
2023-01-06 00:41:00,,0823.1,4.99,0.00,22.0,20.3,00.0,30.9,23.7,10.5,0000.9,0018.41,0010.79,0010.06
2023-01-06 00:42:00,,0823.2,5.00,0.00,22.0,20.6,00.0,30.9,23.8,10.4,0001.0,0018.62,0010.81,0010.07
2023-01-06 00:43:00,,0823.3,5.01,0.00,22.1,21.5,00.0,30.8,24.0,10.3,0001.5,0018.71,0010.82,0010.07
2023-01-06 00:44:00,,0823.2,5.00,0.00,22.2,22.4,00.0,30.9,24.3,10.3,0001.7,0018.67,0010.78,0010.07
2023-01-06 00:45:00,,0823.1,5.00,0.00,22.3,22.5,00.0,30.9,24.4,10.2,0002.1,0019.06,0010.78,0010.07
2023-01-06 00:46:00,,0823.0,4.99,0.00,22.4,22.2,00.0,31.0,24.3,10.4,0002.9,0019.14,0010.80,0010.09
2023-01-06 00:47:00,,0823.1,5.00,0.00,22.4,21.9,00.0,31.0,24.3,10.4,0002.4,0018.28,0010.84,0010.15
2023-01-06 00:48:00,,0823.0,5.00,0.00,22.4,21.7,00.0,31.1,24.3,10.5,0002.5,0017.77,0010.88,0010.22
2023-01-06 00:49:00,,0822.9,5.00,0.00,22.4,21.5,00.0,31.1,24.3,10.5,0002.2,0017.64,0010.97,0010.29
2023-01-06 00:50:00,,0823.1,5.00,0.00,22.4,21.4,00.0,31.1,24.3,10.4,0002.1,0017.20,0011.00,0010.33
2023-01-06 00:51:00,,0823.3,5.00,0.00,22.4,21.4,00.0,31.1,24.3,10.3,0001.9,0016.77,0010.95,0010.27
2023-01-06 00:52:00,,0823.4,5.00,0.00,22.4,21.3,00.0,31.1,24.2,10.3,0000.8,0016.71,0010.84,0010.17
2023-01-06 00:53:00,,0823.2,5.00,0.00,22.4,21.3,00.0,31.2,24.2,10.4,0000.7,0017.35,0010.79,0010.12
2023-01-06 00:54:00,,0823.0,5.01,0.00,22.4,21.2,00.0,31.2,24.2,10.4,0000.3,0017.40,0010.75,0010.09
2023-01-06 00:55:00,,0822.9,5.00,0.00,22.4,21.2,00.0,31.2,24.2,10.4,0000.1,0017.33,0010.72,0010.05
2023-01-06 00:56:00,,0823.0,5.00,0.00,22.4,21.1,00.0,31.2,24.2,10.4,-000.1,0016.96,0010.61,0009.98
2023-01-06 00:57:00,,0823.0,5.02,0.00,22.4,21.1,00.0,31.2,24.2,10.5,-000.9,0016.70,0010.51,0009.89
2023-01-06 00:58:00,,0823.0,5.00,0.00,22.4,21.1,00.0,31.2,24.2,10.5,-000.7,0017.00,0010.44,0009.81
2023-01-06 00:59:00,,0823.1,5.00,0.00,22.4,21.0,00.0,31.2,24.2,10.5,-000.6,0017.01,0010.40,0009.75
